DELTA 1 DEB, 10710

Orbit data source: Space-Track

DELTA 1 DEB, 10710 is space debris in LEO originally from a launch on Thu, 29 Jul 1976 UTC launched from the Air Force Western Test Range (AFWTR). Debris objects in space refer to the collection of defunct objects orbiting the Earth. Examples of debris include non-operational satellites, rocket bodies, and fragments generated from explosions, collisions, or faulty payload assembly.

Loading next visibility...
Identifier
10710, 1976-077AF
Orbit
LEO
Country
Flag of USUS
Related business
Manufacturer
Unknown
Mission
Spacecraft
Bus & Motor
Unknown
Mass
Unknown
Launch date (UTC)
1976-07-29 (50 years ago)
Launch vehicle
Unknown
Launch site
Air Force Western Test Range (AFWTR)
Object type
Payload
Rocket body
Debris
Shape & HBR
Unknown shape, 0.1 m
Radar Cross Section
Small (<0.1 m²)

Expand to show TLE details & history
Last TLE update: 2 days ago

TLE from 2 days ago
0 DELTA 1 DEB
1 10710U 76077AF  26102.71772572  .00000229  00000-0  29924-2 0  9996
2 10710 101.7853 263.9095 0274113 166.8034 214.5408 11.99360487144939
Epoch: 2026-04-12T17:13Z
TLE epoch observation values (Epoch: 2026-04-12T17:13:31.502Z)
Latitude
19.18274°
Longitude
160.46647°
Altitude
1,869.727 km
Speed
6.875 km/s
True Right ascension
17h 19m 03s
True Declination
19° 05' 26"
Sunlit
Object was in daylight at epoch
Visualization orbit readout
Latitude
Unknown
Longitude
Unknown
Altitude
Unknown
Speed
Unknown
Apparent Right ascension
Unknown
Apparent Declination
Unknown
Sunlit
N/A
Visualization observer readout
Local Sidereal Time
03:32:44
Azimuth
Unknown
Elevation
Unknown
Doppler factor
Unknown
Orbital elements
Apogee altitude
1,902.259 km
Perigee altitude
1,460.417 km
Semi-major axis
8,059.475 km
Eccentricity
0.02741
Inclination
101.7853°
RAAN
263.9095°
Arg. of periapsis
166.8034°
True anomaly
212.80902°
Mean anomaly
214.5408°
Eccentric anomaly
213.67007°
Mean motion
2.99974 °/min
Orbital period
120.01 mins
BSTAR
0.0029924
Loading maneuver chart data...
Computing Atmospheric mass density...
Loading historical data...
Loading historical data...
Loading historical data...
Loading historical data...
Loading historical data...
Loading historical data...
Loading historical data...

Documentation

Showing up to 5 results
|